Regional Weather Roundup
Issued by NWS

Home | Current Version | Previous Version | Graphics & Text | Print | Product List | Glossary On
Versions: 1 2 3 4 5 6 7 8 9 10 11 12 13 14 15 16 17 18 19 20 21 22 23 24 25 26 27 28 29 30 31 32 33 34 35 36 37 38 39 40 41 42 43 44 45 46 47 48 49 50
000
ASUS43 KBIS 251410
RWRND
NORTH DAKOTA REGIONAL WEATHER ROUNDUP
NATIONAL WEATHER SERVICE EASTERN NORTH DAKOTA/GRAND FORKS ND
900 AM CDT SUN JUN 25 2017

  NOTE: "FAIR" INDICATES FEW OR NO CLOUDS BELOW 12,000 FEET WITH NO
  SIGNIFICANT WEATHER AND/OR OBSTRUCTIONS TO VISIBILITY.

NDZ001>003-009>011-017-251500-
...NORTHWEST NORTH DAKOTA...

CITY           SKY/WX    TMP DP  RH WIND       PRES   REMARKS
WILLISTON      LGT RAIN  53  49  86 W8        30.30R
MINOT          CLOUDY    55  44  66 SW5       30.25R
MINOT AFB      PTSUNNY   55  47  74 W5        30.24S
$$

NDZ018>021-031>035-040>046-251500-
...SOUTHWEST NORTH DAKOTA...

CITY           SKY/WX    TMP DP  RH WIND       PRES   REMARKS
BISMARCK       CLOUDY    50  41  71 CALM      30.31R
DICKINSON      FAIR      58  33  39 W15       30.25R
GARRISON         N/A     50  46  86 W8        30.27S
HETTINGER      FAIR      59  35  40 SW9       30.31S
$$

NDZ004>008-012>016-024-026-027-054-251500-
...NORTHEAST NORTH DAKOTA...

CITY           SKY/WX    TMP DP  RH WIND       PRES   REMARKS
GRAND FORKS    FAIR      57  47  69 N9        30.23S
GRAND FORKS AF CLOUDY    58  45  62 NW9       30.24R
DEVILS LAKE    PTSUNNY   54  47  77 N5        30.26S
$$

NDZ022-023-025-028>030-036>039-047>053-251500-
...SOUTHEAST NORTH DAKOTA...

CITY           SKY/WX    TMP DP  RH WIND       PRES   REMARKS
JAMESTOWN      FAIR      56  46  69 NW8       30.26S
FARGO          FAIR      58  43  57 N13       30.24S
WAHPETON       FAIR      55  41  58 NW15      30.26R
$$




USA.gov is the U.S. government's official web portal to all federal, state and local government web resources and services.